sat.trackr.live / text

‹ back to catalog

STARLINK-11413 [DTC]

NORAD 62593 · 2025-008G

PAYLOAD ACTIVE UNKNOWN

§ Identity

Operator
Country
US
Launch date
2025-01-13
Launch site
AFETR
Launch vehicle
Mass (kg)
RCS (m²)

Purposes: comms

External: N2YO · Heavens-Above · Gunter

§ Orbital elements

Epoch: 2026-05-25T01:40:00.834240Z

Period
91.66 min
Inclination
43.0031°
Eccentricity
0.0004952
Mean motion
15.70986240 rev/d
Perigee alt
352.7 km
Apogee alt
359.4 km
Semi-major
6,734.2 km
B*
1.4109e-3
RAAN
26.0548°
Arg perigee
266.9457°
Mean anomaly
93.0844°
Rev number
7,919

§ Raw data

STARLINK-11413 [DTC]1 62593U 25008G   26145.06945410  .00185917  00000+0  14109-2 0  99942 62593  43.0031  26.0548 0004952 266.9457  93.0844 15.70986240 79198

JSON: /api/v1/satellites/62593 · /tle

For live sub-satellite position, see the globe view (requires WebGL).

§ Visibility from observer

Set your observer location to see the next 7 days of passes ≥ 10°. The values pass through the URL so the page stays shareable.

No JS? Fill the form by hand. The geolocation button needs JavaScript.